Wind_Speed
20 21 20 19 18 17 16 16 15 14 13 11 10 9 9 9 9 9 9 9 9 10 10 9 9 9 9 9 9 8 8 8 9 9 10 10 10 10 10 9 8 7
21 21 20 19 19 18 18 17 16 15 13 12 11 10 10 9 9 10 10 9 10 10 10 10 9 9 9 9 8 8 8 8 8 8 9 9 10 10 10 10 9 9
21 21 20 20 20 20 19 18 17 16 14 13 12 12 11 11 11 11 11 10 10 11 11 10 10 9 9 9 8 8 8 8 8 8 8 9 9 10 10 10 10 10
23 22 22 22 21 20 19 18 17 16 15 14 14 13 12 11 11 11 11 11 11 12 12 11 11 10 9 9 9 9 9 8 8 7 7 8 8 9 10 10 10 10
24 24 23 23 22 20 20 19 18 17 16 16 15 14 12 11 11 11 11 12 12 12 13 12 12 11 10 10 9 9 9 8 8 7 7 7 7 8 9 10 10 10
26 25 24 23 22 21 21 20 19 18 17 17 16 14 13 11 11 11 11 11 12 12 13 13 12 11 11 10 10 10 9 9 8 8 7 6 7 7 7 8 9 9
27 27 26 25 24 22 22 21 20 19 18 18 16 15 13 12 11 10 10 10 11 12 12 12 12 11 11 11 11 10 9 9 9 9 8 6 6 6 6 6 7 8
28 28 27 26 25 24 23 23 22 21 20 19 18 17 15 13 12 11 10 10 10 11 12 12 12 12 12 12 11 11 10 9 10 10 9 8 7 6 6 6 6 7
29 29 28 27 26 25 25 24 23 23 21 20 19 18 17 15 14 12 11 10 10 10 11 11 12 12 12 12 12 11 10 10 10 11 11 10 9 8 7 6 6 6
30 30 29 28 27 26 26 26 25 24 23 22 21 20 19 17 16 14 12 11 11 10 11 11 12 12 13 13 13 12 11 10 10 11 12 12 11 10 9 8 7 6
32 31 30 29 28 28 28 28 27 26 25 24 23 22 21 20 18 16 14 13 12 12 11 12 12 13 13 13 13 13 11 11 11 11 12 12 13 12 11 10 9 8
34 33 32 31 30 30 30 30 29 27 27 26 25 24 23 22 20 18 16 15 15 14 13 13 13 13 14 14 14 13 12 12 11 11 12 12 13 13 12 11 11 10
36 35 34 33 33 32 32 31 30 29 28 27 27 26 25 24 22 21 19 18 17 16 15 14 14 14 15 15 15 14 13 13 12 12 12 12 12 12 12 12 12 11
38 38 37 35 35 34 33 32 31 30 29 28 28 27 27 26 24 23 22 21 19 18 17 17 16 16 16 16 16 16 15 15 14 13 13 12 12 12 12 12 12 11
41 40 39 38 37 36 35 34 33 32 31 29 28 28 28 27 26 25 24 23 22 21 20 19 18 17 18 18 18 18 18 17 16 15 14 13 13 12 12 12 12 11
41 42 41 40 39 38 37 36 35 33 32 31 30 29 29 28 27 27 26 25 24 23 22 22 20 20 21 21 21 21 21 20 19 17 17 15 14 14 13 13 12 12
40 42 42 41 40 40 39 38 37 35 34 33 31 30 29 29 28 27 26 26 26 25 24 24 23 23 24 24 24 24 23 23 21 20 19 18 16 16 15 15 14 13
38 40 41 41 42 42 41 41 40 38 36 34 33 32 31 30 29 28 27 27 27 26 25 24 24 25 26 27 26 26 26 25 24 23 22 20 19 18 17 17 16 15
36 38 39 40 41 42 43 43 42 40 39 37 36 34 33 31 30 28 27 27 27 26 25 25 25 26 27 28 28 27 28 27 26 25 24 23 22 21 20 19 18 17
36 37 38 40 41 42 44 44 44 43 41 40 39 37 35 33 31 30 28 27 27 26 26 26 26 26 28 29 29 29 29 29 28 27 26 25 23 22 22 21 20 20
37 37 38 39 40 42 43 44 45 45 44 43 42 40 37 35 33 32 30 28 28 28 27 27 26 27 28 30 31 31 31 31 30 29 27 26 25 24 24 23 22 22
39 38 39 39 40 41 42 43 44 45 45 45 44 43 41 39 36 34 32 30 30 29 29 28 28 29 29 30 32 33 33 32 32 31 30 29 28 27 26 26 25 24
42 40 40 40 40 40 41 42 43 44 45 46 45 44 43 41 40 38 35 33 32 31 30 30 31 31 31 31 32 33 33 32 32 31 31 31 31 30 29 29 28 28
45 43 42 42 41 40 40 42 43 44 45 46 45 45 44 43 42 41 39 36 34 33 32 32 32 33 32 33 33 33 32 31 31 31 31 32 32 32 32 32 31 31
47 46 45 44 43 42 42 43 44 45 45 46 45 45 45 44 43 42 41 39 37 36 35 34 34 34 34 34 35 35 33 32 31 30 30 30 31 32 33 33 34 34
48 49 48 47 46 46 46 45 45 46 46 46 46 46 45 44 43 42 41 40 39 38 37 36 36 36 36 36 37 36 35 33 32 31 30 30 31 32 32 32 33 34
Wind_Direction
199 202 200 196 194 195 197 200 204 207 208 207 206 205 199 194 197 202 206 209 212 217 218 217 217 218 218 216 217 217 213 211 208 206 206 206 209 211 213 216 215 213
202 204 203 199 196 198 200 202 204 206 206 205 206 211 211 208 210 214 218 220 221 224 225 224 222 222 223 222 223 223 222 219 213 209 206 205 206 206 207 208 207 208
206 207 205 203 201 201 202 203 205 206 207 208 210 214 215 216 218 222 227 229 231 233 233 233 231 229 230 230 230 229 228 225 221 215 209 206 206 204 202 202 202 204
208 209 207 207 206 204 205 206 207 208 209 210 212 214 215 218 221 224 229 233 236 238 239 239 238 236 235 234 234 233 232 228 223 216 209 203 203 203 199 198 198 197
209 210 209 209 208 207 208 209 210 209 210 211 213 216 217 220 224 227 230 233 236 240 242 242 240 239 238 235 234 231 230 226 219 212 204 194 195 198 196 194 193 190
210 211 211 210 209 208 209 211 211 210 210 212 215 218 221 223 227 230 230 233 236 239 242 242 242 239 237 235 232 228 224 220 213 205 195 182 181 188 190 189 188 187
212 212 212 211 210 209 210 211 211 210 210 212 216 220 223 226 228 230 232 234 236 238 240 242 241 238 235 233 230 223 219 216 211 202 187 170 168 172 177 181 183 186
215 215 215 213 212 211 211 213 212 211 211 212 216 221 224 227 229 229 230 234 237 238 238 238 237 235 232 231 226 219 216 214 211 204 189 172 165 165 166 169 174 182
217 219 219 217 215 213 213 214 213 212 212 213 217 221 224 227 229 228 227 231 237 238 237 235 234 231 228 226 221 216 215 213 210 206 196 183 174 169 165 164 169 178
219 220 222 221 220 217 216 216 216 214 213 214 218 222 225 228 229 229 227 228 233 236 236 235 231 229 226 222 218 216 215 213 210 207 202 195 187 180 173 170 172 177
220 221 222 223 223 221 220 220 219 217 215 216 218 221 225 229 230 231 231 230 232 233 234 234 233 230 225 219 216 217 217 214 212 209 206 202 197 192 187 183 182 184
221 221 222 223 224 224 223 223 222 221 219 218 219 221 225 228 230 232 233 233 233 234 234 234 234 230 224 220 218 218 219 218 215 213 210 208 205 203 200 197 196 196
223 222 222 223 225 225 225 225 225 225 223 222 221 223 225 227 229 231 232 233 234 234 235 234 233 230 225 222 221 220 221 222 219 217 215 212 210 209 208 208 208 208
226 225 224 224 225 227 227 227 228 228 228 226 225 225 227 229 229 230 232 233 234 234 235 234 232 230 226 223 222 223 224 225 224 222 220 216 213 211 211 211 212 214
227 228 227 226 226 228 229 230 229 230 230 230 229 229 230 231 231 231 233 234 235 234 235 234 231 228 226 224 223 224 225 227 227 227 225 222 218 215 214 214 215 216
229 230 229 229 229 229 231 232 231 230 231 232 232 231 232 233 233 233 234 235 236 235 235 234 231 227 226 225 224 224 227 228 229 229 229 227 224 222 221 221 221 222
235 234 233 232 231 231 233 234 234 233 232 232 232 233 233 233 234 234 234 235 236 237 236 234 231 228 226 226 226 226 227 229 230 230 231 230 228 226 226 227 227 229
238 239 238 236 235 234 235 236 236 236 235 234 234 234 234 234 234 233 233 234 236 238 238 237 234 231 229 229 229 229 229 231 231 233 233 232 231 230 230 231 232 233
237 239 240 240 239 238 237 238 238 238 238 237 236 235 235 235 234 234 233 234 236 238 240 240 238 235 234 234 233 232 233 234 234 235 236 236 235 235 235 236 236 237
239 238 239 239 240 240 240 240 240 240 239 240 240 239 238 237 237 236 234 234 235 236 238 240 240 239 238 238 238 237 237 237 237 238 239 240 240 240 240 240 240 242
241 241 241 241 240 240 240 240 241 241 241 241 241 241 241 240 239 238 236 235 235 234 235 237 239 239 239 240 240 240 240 239 238 238 240 241 242 242 243 243 244 245
241 242 242 243 242 241 241 241 242 242 242 242 242 242 242 241 241 240 238 236 236 235 234 235 237 238 239 240 241 241 241 241 241 239 239 240 242 243 244 246 247 249
243 243 244 245 245 244 243 244 244 244 243 243 243 242 242 242 242 241 239 237 237 236 235 234 236 237 239 241 243 244 244 244 244 242 241 240 241 243 245 248 251 253
245 244 245 245 246 246 245 245 245 244 244 244 244 243 243 242 242 242 242 240 238 238 237 236 236 238 239 240 243 245 246 247 247 246 245 244 244 245 247 249 252 255
245 245 244 245 245 245 245 245 245 245 244 243 243 243 243 243 242 242 242 242 240 239 238 238 238 239 240 241 243 245 246 247 248 248 249 249 249 249 249 251 253 255
245 245 244 244 245 245 243 242 242 243 243 243 242 242 242 242 242 242 242 241 241 240 240 239 239 240 241 242 244 245 246 247 248 249 250 251 252 252 252 252 253 255
Height
5951 5951 5953 5954 5955 5956 5957 5958 5959 5960 5961 5962 5963 5964 5965 5965 5966 5967 5968 5969 5969 5970 5970 5970 5971 5971 5972 5972 5973 5973 5973 5974 5975 5975 5976 5976 5976 5977 5977 5978 5978 5979
5950 5951 5952 5953 5955 5955 5956 5957 5959 5960 5961 5962 5963 5964 5964 5965 5965 5966 5967 5968 5969 5969 5970 5970 5971 5971 5972 5972 5973 5973 5973 5973 5974 5975 5975 5975 5976 5976 5977 5977 5978 5978
5949 5950 5951 5953 5954 5955 5956 5957 5958 5959 5960 5961 5962 5963 5963 5964 5965 5965 5966 5967 5968 5969 5969 5970 5970 5971 5971 5972 5972 5973 5973 5973 5974 5974 5975 5975 5976 5976 5976 5977 5977 5978
5948 5949 5950 5951 5953 5954 5955 5957 5958 5959 5960 5960 5961 5961 5962 5963 5964 5965 5965 5966 5967 5968 5968 5969 5970 5970 5971 5971 5972 5972 5973 5973 5974 5974 5975 5975 5976 5976 5976 5977 5977 5977
5947 5948 5949 5951 5952 5954 5955 5956 5957 5958 5959 5959 5960 5961 5961 5962 5963 5964 5965 5965 5966 5967 5968 5968 5969 5970 5970 5971 5971 5972 5972 5973 5974 5974 5975 5975 5976 5976 5976 5977 5977 5977
5945 5947 5948 5950 5951 5953 5954 5955 5956 5957 5958 5959 5959 5960 5960 5961 5962 5963 5964 5964 5965 5966 5967 5967 5968 5969 5970 5970 5971 5971 5972 5972 5973 5974 5975 5976 5976 5977 5977 5977 5977 5977
5944 5945 5947 5948 5950 5952 5953 5954 5955 5956 5957 5958 5959 5959 5959 5960 5961 5962 5963 5964 5964 5965 5966 5967 5967 5968 5969 5969 5970 5970 5971 5972 5973 5974 5975 5976 5976 5977 5977 5977 5977 5977
5943 5944 5945 5947 5948 5950 5952 5953 5954 5955 5956 5957 5958 5958 5959 5959 5960 5961 5962 5963 5964 5964 5965 5966 5966 5967 5968 5968 5969 5970 5970 5971 5972 5973 5974 5975 5976 5976 5977 5977 5977 5978
5941 5942 5944 5945 5947 5949 5950 5952 5953 5954 5955 5956 5956 5957 5958 5959 5960 5961 5962 5962 5963 5964 5964 5965 5965 5966 5967 5967 5968 5969 5970 5971 5972 5973 5974 5975 5975 5976 5977 5977 5977 5978
5939 5940 5942 5943 5945 5947 5948 5950 5951 5953 5954 5955 5955 5956 5957 5958 5959 5960 5961 5961 5962 5963 5963 5964 5964 5965 5965 5966 5967 5968 5969 5970 5971 5972 5973 5974 5975 5976 5976 5977 5977 5978
5936 5938 5939 5941 5943 5945 5946 5947 5949 5951 5952 5953 5954 5955 5956 5957 5958 5959 5960 5960 5961 5962 5962 5963 5963 5964 5964 5965 5966 5967 5968 5969 5970 5972 5973 5974 5974 5975 5976 5976 5976 5977
5933 5935 5937 5939 5940 5942 5943 5945 5947 5949 5951 5952 5953 5954 5954 5955 5956 5958 5958 5959 5960 5961 5961 5962 5962 5963 5964 5964 5965 5966 5968 5969 5970 5971 5972 5973 5974 5975 5975 5975 5976 5976
5931 5933 5934 5936 5937 5938 5940 5942 5944 5946 5948 5950 5951 5952 5953 5954 5955 5956 5957 5958 5959 5959 5960 5961 5961 5962 5963 5963 5964 5966 5967 5968 5969 5970 5971 5972 5973 5974 5974 5975 5975 5975
5929 5930 5932 5933 5934 5936 5937 5939 5941 5943 5945 5947 5949 5950 5951 5952 5953 5954 5955 5956 5957 5958 5959 5959 5960 5961 5962 5963 5964 5965 5966 5967 5967 5968 5969 5971 5972 5973 5973 5974 5974 5974
5926 5927 5929 5931 5932 5934 5935 5936 5938 5940 5942 5944 5946 5948 5949 5950 5951 5952 5953 5954 5955 5956 5957 5958 5959 5960 5961 5962 5963 5963 5964 5965 5966 5967 5968 5969 5970 5971 5972 5972 5973 5973
5923 5924 5926 5928 5930 5932 5932 5934 5935 5937 5939 5941 5943 5945 5946 5947 5949 5950 5951 5952 5953 5954 5955 5955 5957 5958 5959 5959 5960 5961 5962 5963 5964 5965 5966 5967 5969 5969 5970 5971 5971 5972
5921 5922 5924 5926 5928 5929 5930 5931 5932 5934 5936 5938 5940 5942 5943 5945 5946 5948 5949 5950 5951 5952 5953 5954 5955 5956 5956 5957 5958 5959 5960 5961 5962 5963 5964 5966 5967 5968 5968 5969 5969 5970
5917 5919 5921 5923 5925 5926 5927 5928 5929 5931 5933 5935 5937 5939 5940 5942 5944 5945 5947 5948 5949 5950 5951 5952 5953 5954 5954 5955 5956 5957 5958 5959 5960 5961 5963 5964 5965 5966 5966 5967 5968 5968
5914 5915 5917 5920 5922 5923 5924 5925 5926 5928 5930 5932 5934 5935 5937 5939 5941 5943 5945 5946 5947 5948 5950 5951 5951 5952 5953 5953 5954 5955 5956 5957 5958 5960 5961 5962 5963 5964 5965 5966 5966 5967
5911 5912 5913 5915 5917 5919 5920 5922 5923 5925 5927 5929 5930 5932 5934 5936 5938 5940 5942 5944 5945 5946 5947 5948 5949 5950 5951 5951 5952 5954 5954 5955 5957 5958 5959 5960 5962 5963 5964 5964 5965 5965
5907 5909 5910 5911 5913 5915 5916 5918 5920 5922 5924 5925 5927 5929 5931 5934 5935 5937 5939 5941 5942 5943 5945 5946 5947 5948 5948 5949 5950 5951 5952 5953 5954 5956 5958 5959 5960 5961 5962 5963 5964 5964
5903 5905 5907 5908 5909 5911 5913 5915 5916 5918 5920 5921 5923 5926 5928 5930 5932 5934 5936 5938 5939 5940 5941 5943 5944 5944 5945 5946 5946 5947 5948 5949 5951 5953 5955 5956 5958 5959 5960 5961 5962 5963
5900 5902 5904 5905 5907 5908 5910 5912 5913 5914 5916 5917 5919 5922 5924 5927 5928 5930 5932 5934 5935 5937 5938 5940 5941 5941 5942 5943 5943 5944 5945 5947 5948 5950 5952 5953 5955 5956 5957 5959 5960 5960
5896 5898 5900 5901 5903 5905 5907 5908 5909 5910 5911 5913 5915 5918 5920 5922 5924 5926 5929 5931 5932 5934 5935 5936 5937 5938 5939 5939 5940 5941 5942 5944 5946 5947 5949 5950 5952 5953 5954 5956 5957 5957
5891 5893 5895 5897 5899 5900 5901 5902 5904 5905 5906 5908 5910 5913 5915 5918 5920 5923 5925 5927 5929 5930 5931 5933 5934 5934 5935 5936 5937 5938 5939 5941 5943 5944 5946 5947 5948 5949 5950 5952 5953 5954
5886 5888 5890 5892 5892 5892 5893 5895 5896 5898 5900 5903 5905 5907 5910 5913 5916 5918 5921 5923 5925 5926 5927 5929 5930 5930 5932 5932 5933 5934 5936 5938 5939 5941 5943 5944 5944 5945 5946 5948 5949 5949